Weather History for Nausori, Fiji

Change the Weather History Date:

Tuesday, January 24, 2006

  Actual Average Record
Temperature  
Mean Temperature 82 °F -  
Max Temperature 90 °F - - ()
Min Temperature 75 °F - - ()
Cooling Degree Days 18    
Growing Degree Days 32 (Base 50)    
Moisture  
Dew Point 77 °F    
Average Humidity 83    
Maximum Humidity 100    
Minimum Humidity 55    
Precipitation  
Precipitation 0.08 in - - ()
Sea Level Pressure  
Sea Level Pressure 29.82 in    
Wind  
Wind Speed 4 mph ()    
Max Wind Speed 12 mph    
Max Gust Speed -    
Visibility 12.0 miles    
Events Rain    
T = Trace of Precipitation, MM = Missing Value Source: Averaged Metar Reports

Daily Weather History Graph

Daily Weather History Graph

Search for Another Location

Airport:

Trip Planner

Search our weather history database for the weather conditions in past years. The results will help you decide how hot, cold, wet, or windy it might be!

Date:

Astronomy

Jan. 24, 2006 Rise Set
Actual Time 5:47 AM FJT 6:47 PM FJT
Civil Twilight 5:24 AM FJT 7:10 PM FJT
Nautical Twilight 4:56 AM FJT 7:38 PM FJT
Astronomical Twilight 4:28 AM FJT 8:06 PM FJT
Moon 12:09 AM FJT (1/24) 1:29 PM FJT (1/24)
Length of Visible Light 13h 46m
Length of Day
12h 59m
Last Quarter, 36% of the Moon is Illuminated
Jan 24
Last Quarter
Jan 30
New
Feb 5
First Quarter
Feb 13
Full
Feb 21
Last Quarter

Hourly Weather History & Observations

Time (FJT) Temp. Heat Index Dew Point Humidity Pressure Visibility Wind Dir Wind Speed Gust Speed Precip Events Conditions
12:00 AM 80 °F - 78 °F 93% 29.83 in 12 mi NNW 5.8 mph - -   Partly Cloudy
12:00 AM 78.8 °F - 78.8 °F 100% 29.83 in 24.9 mi NNW 5.8 mph - N/A   Mostly Cloudy
1:00 AM 80.6 °F 88.1 °F 78.8 °F 94% 29.80 in 24.9 mi Calm Calm - N/A Rain Light Rain Showers
2:00 AM 78.8 °F - 77.0 °F 94% 29.80 in 24.9 mi WNW 4.6 mph - N/A   Mostly Cloudy
3:00 AM 79 °F - 78 °F 94% 29.79 in 12 mi WNW 4.6 mph - - Rain Light Rain Showers
3:00 AM 78.8 °F - 77.0 °F 94% 29.77 in 24.9 mi WNW 4.6 mph - N/A   Mostly Cloudy
4:00 AM 77.0 °F - 77.0 °F 100% 29.77 in 24.9 mi Calm Calm - N/A   Mostly Cloudy
5:00 AM 77.0 °F - 77.0 °F 100% 29.80 in 24.9 mi Calm Calm - N/A   Mostly Cloudy
6:00 AM 76 °F - 76 °F 100% 29.84 in 31 mi Calm Calm - - Rain Light Rain Showers
6:00 AM 77.0 °F - 77.0 °F 100% 29.83 in 24.9 mi Calm Calm - N/A   Scattered Clouds
7:00 AM 78.8 °F - 77.0 °F 94% 29.86 in 31.1 mi Calm Calm - N/A   Mostly Cloudy
8:00 AM 78.8 °F - 77.0 °F 94% 29.86 in 31.1 mi WNW 4.6 mph - N/A   Mostly Cloudy
9:00 AM 84 °F - 79 °F 81% 29.86 in 31 mi Calm Calm - -   Partly Cloudy
9:00 AM 84.2 °F 96.1 °F 78.8 °F 84% 29.86 in 31.1 mi Calm Calm - N/A   Mostly Cloudy
10:00 AM 86.0 °F 96.9 °F 77.0 °F 74% 29.86 in 31.1 mi NE 11.5 mph - N/A   Mostly Cloudy
11:00 AM 87.8 °F 99.7 °F 77.0 °F 70% 29.86 in 31.1 mi NNE 11.5 mph - N/A   Mostly Cloudy
12:00 PM 89 °F - 76 °F 59% 29.85 in 31 mi NNE 8.1 mph - -   Partly Cloudy
12:00 PM 89.6 °F 102.2 °F 77.0 °F 66% 29.83 in 31.1 mi NNE 8.1 mph - N/A   Mostly Cloudy
1:00 PM 89.6 °F 102.2 °F 77.0 °F 66% 29.80 in 31.1 mi NNE 5.8 mph - N/A   Mostly Cloudy
2:00 PM 89.6 °F 102.2 °F 77.0 °F 66% 29.80 in 31.1 mi NNE 5.8 mph - N/A   Mostly Cloudy
3:00 PM 90 °F - 76 °F 55% 29.80 in 31 mi ENE 11.5 mph - -   Partly Cloudy
3:00 PM 89.6 °F 99.8 °F 75.2 °F 62% 29.77 in 31.1 mi ENE 11.5 mph - N/A   Mostly Cloudy
4:00 PM 87.8 °F 99.7 °F 77.0 °F 70% 29.77 in 31.1 mi ENE 11.5 mph - N/A   Mostly Cloudy
5:00 PM 86.0 °F 96.9 °F 77.0 °F 74% 29.77 in 31.1 mi ENE 11.5 mph - N/A   Mostly Cloudy
6:00 PM 86 °F - 77 °F 69% 29.80 in 31 mi ENE 9.2 mph - -   Partly Cloudy
6:00 PM 86.0 °F 96.9 °F 77.0 °F 74% 29.80 in 31.1 mi ENE 11.5 mph - N/A   Mostly Cloudy
7:00 PM 84.2 °F 94.1 °F 77.0 °F 79% 29.80 in 31.1 mi ENE 5.8 mph - N/A   Mostly Cloudy
8:00 PM 82.4 °F 90.9 °F 77.0 °F 84% 29.83 in 31.1 mi Calm Calm - N/A   Mostly Cloudy
9:00 PM 80 °F - 78 °F 93% 29.86 in 31 mi Calm Calm - -   Partly Cloudy
9:00 PM 80.6 °F 88.1 °F 78.8 °F 94% 29.83 in 31.1 mi Calm Calm - N/A   Scattered Clouds
10:00 PM 80.6 °F 88.1 °F 78.8 °F 94% 29.86 in 31.1 mi Calm Calm - N/A   Scattered Clouds
11:00 PM 80.6 °F 88.1 °F 78.8 °F 94% 29.86 in 31.1 mi Calm Calm - N/A   Scattered Clouds